Regional Weather Roundup
Issued by NWS Binghamton, NY

Home | Current Version | Previous Version | Text Only | Print | Product List | Glossary On
Versions: 1 2 3 4 5 6 7 8 9 10 11 12 13 14 15 16 17 18 19 20 21 22 23 24 25 26 27 28 29 30 31 32 33 34 35 36 37 38 39 40 41 42 43 44 45 46 47 48 49 50
000
ASUS41 KBGM 011910
RWRBGM
RWRBGM
BINGHAMTON REGIONAL WEATHER ROUNDUP
NATIONAL WEATHER SERVICE BINGHAMTON NY
300 PM EDT WED JUL 01 2015

Note: "fair" indicates few or no clouds below 12,000 feet with no
significant weather and/or obstructions to visibility.

* = Station(s) that does not report precipitation, such as rain,
snow, etc, also no thunder or fog.

!NYZ009-015>018-022>025-036-037-044>046-055>057-062-012000
...CENTRAL NEW YORK...

CITY           SKY/WX    TMP DP  RH WIND       PRES   REMARKS
BINGHAMTON     PTSUNNY   66  62  87 SW10      29.79S
CORTLAND       FAIR      70  64  83 W13G22    29.78R
DANSVILLE      LGT RAIN  67  61  81 VRB6      29.83R
ELMIRA         PTSUNNY   74  60  61 NW15G24   29.77R
ITHACA         PTSUNNY   73  58  59 W22G29    29.78R
MONTICELLO     CLOUDY    72  57  60 W9G20     29.80F
NORWICH        RAIN      63  59  88 CALM      29.77R
PENN YAN       PTSUNNY   70  59  68 W16G22    29.79R
ROME           LGT RAIN  67  64  90 W17       29.74R
SIDNEY         RAIN      70  70 100 W5        29.78R
SYRACUSE       CLOUDY    66  63  90 W9        29.74R
$$

!PAZ038>040-043-044-047-048-072-012000
...NORTHEAST PENNSYLVANIA...

CITY           SKY/WX    TMP DP  RH WIND       PRES   REMARKS
HAZLETON       PTSUNNY   73  59  60 W7        29.88S
SCRANTON       CLOUDY    77  59  53 W16G25    29.80F
TOWANDA*       MOSUNNY   72  61  68 W15       29.80R
$$
&&
KEY
WCI = WIND CHILL INDEX
VSB = VISIBILITY
HX  = HEAT INDEX
$$


USA.gov is the U.S. government's official web portal to all federal, state and local government web resources and services.